Location: Waco, TX
(31.5480°N, 97.1670°W)
Time: 15:23:50
(UTC-05:00)

ISS - Pass Details

Date: 17 September 2019
Orbit: 411 x 421 km, 51.6° (Epoch: 17 September)

Event Time Altitude Azimuth Distance (km) Brightness Sun altitude
Rises 04:38:38 0° 324° (NW) 2,347 - -32.7°
Reaches altitude 10° 04:40:53 10° 336° (NNW) 1,484 - -32.2°
Maximum altitude 04:43:52 30° 40° (NE) 770 - -31.7°
Drops below altitude 10° 04:46:51 10° 104° (ESE) 1,483 - -31.1°
Exits shadow 04:47:25 - 107° (ESE) 1,689 -0.1 -31.0°
Sets 04:49:06 0° 115° (ESE) 2,345 0.6 -30.7°
